Year,Month,Day,Hour,Minute,Value (Times are PST for temperature in C)
2016,03,04,00,00,9.40
2016,03,04,00,01,9.30
2016,03,04,00,02,9.30
2016,03,04,00,03,9.30
2016,03,04,00,04,9.30
2016,03,04,00,05,9.30
2016,03,04,00,06,9.30
2016,03,04,00,07,9.30
2016,03,04,00,08,9.30
2016,03,04,00,09,9.30
2016,03,04,00,10,9.30
2016,03,04,00,11,9.30
2016,03,04,00,12,9.30
2016,03,04,00,13,9.30
2016,03,04,00,14,9.30
2016,03,04,00,15,9.30
2016,03,04,00,16,9.30
2016,03,04,00,17,9.30
2016,03,04,00,18,9.40
2016,03,04,00,19,9.40
2016,03,04,00,20,9.40
2016,03,04,00,21,9.40
2016,03,04,00,22,9.40
2016,03,04,00,23,9.40
2016,03,04,00,24,9.40
2016,03,04,00,25,9.40
2016,03,04,00,26,9.40
2016,03,04,00,27,9.40
2016,03,04,00,28,9.40
2016,03,04,00,29,9.30
2016,03,04,00,30,9.30
2016,03,04,00,31,9.30
2016,03,04,00,32,9.30
2016,03,04,00,33,9.20
2016,03,04,00,34,9.20
2016,03,04,00,35,9.20
2016,03,04,00,36,9.10
2016,03,04,00,37,9.10
2016,03,04,00,38,9.10
2016,03,04,00,39,9.10
2016,03,04,00,40,9.10
2016,03,04,00,41,9.10
2016,03,04,00,42,9.00
2016,03,04,00,43,9.00
2016,03,04,00,44,9.00
2016,03,04,00,45,9.00
2016,03,04,00,46,9.00
2016,03,04,00,47,9.00
2016,03,04,00,48,9.00
2016,03,04,00,49,9.00
2016,03,04,00,50,9.00
2016,03,04,00,51,9.00
2016,03,04,00,52,8.90
2016,03,04,00,53,8.90
2016,03,04,00,54,8.90
2016,03,04,00,55,8.90
2016,03,04,00,56,8.90
2016,03,04,00,57,8.90
2016,03,04,00,58,8.90
2016,03,04,00,59,8.90
2016,03,04,01,00,8.80
2016,03,04,01,01,8.80
2016,03,04,01,02,8.80
2016,03,04,01,03,8.80
2016,03,04,01,04,8.80
2016,03,04,01,05,8.80
2016,03,04,01,06,8.70
2016,03,04,01,07,8.70
2016,03,04,01,08,8.70
2016,03,04,01,09,8.70
2016,03,04,01,10,8.70
2016,03,04,01,11,8.70
2016,03,04,01,12,8.70
2016,03,04,01,13,8.70
2016,03,04,01,14,8.70
2016,03,04,01,15,8.70
2016,03,04,01,16,8.70
2016,03,04,01,17,8.70
2016,03,04,01,18,8.70
2016,03,04,01,19,8.70
2016,03,04,01,20,8.70
2016,03,04,01,21,8.60
2016,03,04,01,22,8.60
2016,03,04,01,23,8.60
2016,03,04,01,24,8.60
2016,03,04,01,25,8.60
2016,03,04,01,26,8.60
2016,03,04,01,27,8.50
2016,03,04,01,28,8.50
2016,03,04,01,29,8.50
2016,03,04,01,30,8.40
2016,03,04,01,31,8.40
2016,03,04,01,32,8.40
2016,03,04,01,33,8.40
2016,03,04,01,34,8.30
2016,03,04,01,35,8.30
2016,03,04,01,36,8.30
2016,03,04,01,37,8.30
2016,03,04,01,38,8.30
2016,03,04,01,39,8.30
2016,03,04,01,40,8.30
2016,03,04,01,41,8.30
2016,03,04,01,42,8.30
2016,03,04,01,43,8.30
2016,03,04,01,44,8.30
2016,03,04,01,45,8.30
2016,03,04,01,46,8.20
2016,03,04,01,47,8.20
2016,03,04,01,48,8.20
2016,03,04,01,49,8.20
2016,03,04,01,50,8.20
2016,03,04,01,51,8.20
2016,03,04,01,52,8.30
2016,03,04,01,53,8.30
2016,03,04,01,54,8.30
2016,03,04,01,55,8.30
2016,03,04,01,56,8.40
2016,03,04,01,57,8.40
2016,03,04,01,58,8.40
2016,03,04,01,59,8.50
2016,03,04,02,00,8.50
2016,03,04,02,01,8.50
2016,03,04,02,02,8.50
2016,03,04,02,03,8.60
2016,03,04,02,04,8.60
2016,03,04,02,05,8.60
2016,03,04,02,06,8.60
2016,03,04,02,07,8.60
2016,03,04,02,08,8.60
2016,03,04,02,09,8.60
2016,03,04,02,10,8.60
2016,03,04,02,11,8.60
2016,03,04,02,12,8.60
2016,03,04,02,13,8.60
2016,03,04,02,14,8.60
2016,03,04,02,15,8.60
2016,03,04,02,16,8.60
2016,03,04,02,17,8.50
2016,03,04,02,18,8.50
2016,03,04,02,19,8.50
2016,03,04,02,20,8.50
2016,03,04,02,21,8.50
2016,03,04,02,22,8.50
2016,03,04,02,23,8.50
2016,03,04,02,24,8.50
2016,03,04,02,25,8.50
2016,03,04,02,26,8.50
2016,03,04,02,27,8.50
2016,03,04,02,28,8.60
2016,03,04,02,29,8.60
2016,03,04,02,30,8.60
2016,03,04,02,31,8.60
2016,03,04,02,32,8.60
2016,03,04,02,33,8.60
2016,03,04,02,34,8.60
2016,03,04,02,35,8.60
2016,03,04,02,36,8.60
2016,03,04,02,37,8.60
2016,03,04,02,38,8.60
2016,03,04,02,39,8.60
2016,03,04,02,40,8.60
2016,03,04,02,41,8.60
2016,03,04,02,42,8.60
2016,03,04,02,43,8.60
2016,03,04,02,44,8.60
2016,03,04,02,45,8.60
2016,03,04,02,46,8.60
2016,03,04,02,47,8.60
2016,03,04,02,48,8.50
2016,03,04,02,49,8.60
2016,03,04,02,50,8.50
2016,03,04,02,51,8.50
2016,03,04,02,52,8.50
2016,03,04,02,53,8.50
2016,03,04,02,54,8.50
2016,03,04,02,55,8.50
2016,03,04,02,56,8.50
2016,03,04,02,57,8.40
2016,03,04,02,58,8.40
2016,03,04,02,59,8.40
2016,03,04,03,00,8.40
2016,03,04,03,01,8.40
2016,03,04,03,02,8.40
2016,03,04,03,06,8.30
2016,03,04,03,07,8.30
2016,03,04,03,08,8.30
2016,03,04,03,09,8.30
2016,03,04,03,10,8.30
2016,03,04,03,11,8.30
2016,03,04,03,12,8.30
2016,03,04,03,13,8.30
2016,03,04,03,14,8.30
2016,03,04,03,15,8.30
2016,03,04,03,16,8.30
2016,03,04,03,17,8.30
2016,03,04,03,18,8.30
2016,03,04,03,19,8.20
2016,03,04,03,20,8.20
2016,03,04,03,21,8.20
2016,03,04,03,22,8.20
2016,03,04,03,23,8.20
2016,03,04,03,24,8.20
2016,03,04,03,25,8.10
2016,03,04,03,26,8.10
2016,03,04,03,27,8.10
2016,03,04,03,28,8.10
2016,03,04,03,29,8.10
2016,03,04,03,30,8.10
2016,03,04,03,31,8.10
2016,03,04,03,32,8.00
2016,03,04,03,33,8.00
2016,03,04,03,34,8.00
2016,03,04,03,35,7.90
2016,03,04,03,36,7.90
2016,03,04,03,37,7.90
2016,03,04,03,38,7.80
2016,03,04,03,39,7.80
2016,03,04,03,40,7.80
2016,03,04,03,41,7.80
2016,03,04,03,42,7.70
2016,03,04,03,43,7.70
2016,03,04,03,44,7.70
2016,03,04,03,45,7.70
2016,03,04,03,46,7.60
2016,03,04,03,47,7.60
2016,03,04,03,48,7.60
2016,03,04,03,49,7.60
2016,03,04,03,50,7.50
2016,03,04,03,51,7.50
2016,03,04,03,52,7.40
2016,03,04,03,53,7.40
2016,03,04,03,54,7.40
2016,03,04,03,55,7.40
2016,03,04,03,56,7.30
2016,03,04,03,57,7.30
2016,03,04,03,58,7.30
2016,03,04,03,59,7.30
2016,03,04,04,00,7.30
2016,03,04,04,01,7.20
2016,03,04,04,02,7.20
2016,03,04,04,03,7.20
2016,03,04,04,04,7.20
2016,03,04,04,05,7.20
2016,03,04,04,06,7.10
2016,03,04,04,07,7.10
2016,03,04,04,08,7.10
2016,03,04,04,09,7.10
2016,03,04,04,10,7.00
2016,03,04,04,11,7.00
2016,03,04,04,12,7.00
2016,03,04,04,13,7.00
2016,03,04,04,14,6.90
2016,03,04,04,15,6.90
2016,03,04,04,16,6.90
2016,03,04,04,17,6.90
2016,03,04,04,18,6.90
2016,03,04,04,19,6.90
2016,03,04,04,20,6.80
2016,03,04,04,21,6.80
2016,03,04,04,22,6.80
2016,03,04,04,23,6.70
2016,03,04,04,24,6.70
2016,03,04,04,25,6.70
2016,03,04,04,26,6.60
2016,03,04,04,27,6.60
2016,03,04,04,28,6.50
2016,03,04,04,29,6.50
2016,03,04,04,30,6.50
2016,03,04,04,31,6.60
2016,03,04,04,32,6.60
2016,03,04,04,33,6.60
2016,03,04,04,34,6.60
2016,03,04,04,35,6.60
2016,03,04,04,36,6.60
2016,03,04,04,37,6.60
2016,03,04,04,38,6.60
2016,03,04,04,39,6.70
2016,03,04,04,40,6.70
2016,03,04,04,41,6.70
2016,03,04,04,42,6.70
2016,03,04,04,43,6.70
2016,03,04,04,44,6.70
2016,03,04,04,45,6.60
2016,03,04,04,46,6.60
2016,03,04,04,47,6.60
2016,03,04,04,48,6.70
2016,03,04,04,49,6.60
2016,03,04,04,50,6.70
2016,03,04,04,51,6.60
2016,03,04,04,52,6.60
2016,03,04,04,53,6.60
2016,03,04,04,54,6.60
2016,03,04,04,55,6.60
2016,03,04,04,56,6.60
2016,03,04,04,57,6.60
2016,03,04,04,58,6.60
2016,03,04,04,59,6.70
2016,03,04,05,00,6.70
2016,03,04,05,01,6.70
2016,03,04,05,02,6.70
2016,03,04,05,03,6.70
2016,03,04,05,04,6.70
2016,03,04,05,05,6.70
2016,03,04,05,06,6.60
2016,03,04,05,07,6.60
2016,03,04,05,08,6.60
2016,03,04,05,09,6.60
2016,03,04,05,10,6.60
2016,03,04,05,11,6.60
2016,03,04,05,12,6.60
2016,03,04,05,13,6.60
2016,03,04,05,14,6.60
2016,03,04,05,15,6.60
2016,03,04,05,16,6.60
2016,03,04,05,17,6.60
2016,03,04,05,18,6.60
2016,03,04,05,19,6.60
2016,03,04,05,20,6.60
2016,03,04,05,21,6.60
2016,03,04,05,22,6.60
2016,03,04,05,23,6.60
2016,03,04,05,24,6.60
2016,03,04,05,25,6.60
2016,03,04,05,26,6.60
2016,03,04,05,27,6.60
2016,03,04,05,28,6.60
2016,03,04,05,29,6.60
2016,03,04,05,30,6.60
2016,03,04,05,31,6.70
2016,03,04,05,32,6.70
2016,03,04,05,33,6.70
2016,03,04,05,34,6.70
2016,03,04,05,35,6.70
2016,03,04,05,36,6.70
2016,03,04,05,37,6.70
2016,03,04,05,38,6.70
2016,03,04,05,39,6.70
2016,03,04,05,40,6.70
2016,03,04,05,41,6.70
2016,03,04,05,42,6.70
2016,03,04,05,43,6.70
2016,03,04,05,44,6.70
2016,03,04,05,45,6.70
2016,03,04,05,46,6.70
2016,03,04,05,47,6.70
2016,03,04,05,48,6.80
2016,03,04,05,49,6.80
2016,03,04,05,50,6.80
2016,03,04,05,51,6.80
2016,03,04,05,52,6.80
2016,03,04,05,53,6.80
2016,03,04,05,54,6.80
2016,03,04,05,55,6.80
2016,03,04,05,56,6.80
2016,03,04,05,57,6.80
2016,03,04,05,58,6.80
2016,03,04,05,59,6.80
2016,03,04,06,00,6.80
2016,03,04,06,01,6.80
2016,03,04,06,02,6.80
2016,03,04,06,03,6.80
2016,03,04,06,04,6.70
2016,03,04,06,05,6.70
2016,03,04,06,06,6.70
2016,03,04,06,07,6.70
2016,03,04,06,08,6.70
2016,03,04,06,09,6.70
2016,03,04,06,10,6.70
2016,03,04,06,11,6.70
2016,03,04,06,12,6.70
2016,03,04,06,13,6.70
2016,03,04,06,14,6.70
2016,03,04,06,15,6.70
2016,03,04,06,16,6.70
2016,03,04,06,17,6.70
2016,03,04,06,18,6.70
2016,03,04,06,19,6.70
2016,03,04,06,20,6.70
2016,03,04,06,21,6.70
2016,03,04,06,22,6.60
2016,03,04,06,23,6.60
2016,03,04,06,24,6.60
2016,03,04,06,25,6.60
2016,03,04,06,26,6.60
2016,03,04,06,27,6.50
2016,03,04,06,28,6.50
2016,03,04,06,29,6.50
2016,03,04,06,30,6.40
2016,03,04,06,31,6.40
2016,03,04,06,32,6.40
2016,03,04,06,33,6.40
2016,03,04,06,34,6.40
2016,03,04,06,35,6.40
2016,03,04,06,36,6.30
2016,03,04,06,37,6.30
2016,03,04,06,38,6.30
2016,03,04,06,39,6.30
2016,03,04,06,40,6.30
2016,03,04,06,41,6.30
2016,03,04,06,42,6.30
2016,03,04,06,43,6.30
2016,03,04,06,44,6.20
2016,03,04,06,45,6.20
2016,03,04,06,46,6.20
2016,03,04,06,47,6.20
2016,03,04,06,48,6.20
2016,03,04,06,49,6.20
2016,03,04,06,50,6.10
2016,03,04,06,51,6.10
2016,03,04,06,52,6.20
2016,03,04,06,53,6.20
2016,03,04,06,54,6.20
2016,03,04,06,55,6.20
2016,03,04,06,56,6.30
2016,03,04,06,57,6.30
2016,03,04,06,58,6.30
2016,03,04,06,59,6.30
2016,03,04,07,00,6.30
2016,03,04,07,01,6.40
2016,03,04,07,02,6.40
2016,03,04,07,03,6.40
2016,03,04,07,04,6.40
2016,03,04,07,05,6.40
2016,03,04,07,06,6.40
2016,03,04,07,07,6.50
2016,03,04,07,08,6.50
2016,03,04,07,09,6.50
2016,03,04,07,10,6.50
2016,03,04,07,11,6.60
2016,03,04,07,12,6.60
2016,03,04,07,13,6.60
2016,03,04,07,14,6.60
2016,03,04,07,15,6.60
2016,03,04,07,16,6.70
2016,03,04,07,17,6.70
2016,03,04,07,18,6.70
2016,03,04,07,19,6.70
2016,03,04,07,20,6.70
2016,03,04,07,21,6.70
2016,03,04,07,22,6.70
2016,03,04,07,23,6.70
2016,03,04,07,24,6.80
2016,03,04,07,25,6.80
2016,03,04,07,26,6.80
2016,03,04,07,27,6.90
2016,03,04,07,28,7.00
2016,03,04,07,29,7.10
2016,03,04,07,30,7.20
2016,03,04,07,31,7.30
2016,03,04,07,32,7.30
2016,03,04,07,33,7.40
2016,03,04,07,34,7.50
2016,03,04,07,35,7.60
2016,03,04,07,36,7.70
2016,03,04,07,37,7.80
2016,03,04,07,38,7.80
2016,03,04,07,39,7.90
2016,03,04,07,40,8.00
2016,03,04,07,41,8.10
2016,03,04,07,42,8.10
2016,03,04,07,43,8.20
2016,03,04,07,44,8.20
2016,03,04,07,45,8.20
2016,03,04,07,46,8.20
2016,03,04,07,47,8.20
2016,03,04,07,48,8.10
2016,03,04,07,49,8.10
2016,03,04,07,50,8.10
2016,03,04,07,51,8.10
2016,03,04,07,52,8.10
2016,03,04,07,53,8.10
2016,03,04,07,54,8.10
2016,03,04,07,55,8.10
2016,03,04,07,56,8.10
2016,03,04,07,57,8.10
2016,03,04,07,58,8.10
2016,03,04,07,59,8.10
2016,03,04,08,00,8.00
2016,03,04,08,01,8.00
2016,03,04,08,02,8.00
2016,03,04,08,03,8.00
2016,03,04,08,04,8.00
2016,03,04,08,05,8.00
2016,03,04,08,06,8.00
2016,03,04,08,07,8.10
2016,03,04,08,08,8.10
2016,03,04,08,09,8.10
2016,03,04,08,10,8.10
2016,03,04,08,11,8.10
2016,03,04,08,12,8.10
2016,03,04,08,13,8.10
2016,03,04,08,14,8.10
2016,03,04,08,15,8.10
2016,03,04,08,16,8.10
2016,03,04,08,17,8.20
2016,03,04,08,18,8.20
2016,03,04,08,19,8.20
2016,03,04,08,20,8.20
2016,03,04,08,21,8.20
2016,03,04,08,22,8.30
2016,03,04,08,23,8.30
2016,03,04,08,24,8.30
2016,03,04,08,25,8.30
2016,03,04,08,26,8.30
2016,03,04,08,27,8.30
2016,03,04,08,28,8.40
2016,03,04,08,29,8.40
2016,03,04,08,30,8.40
2016,03,04,08,31,8.40
2016,03,04,08,32,8.50
2016,03,04,08,33,8.60
2016,03,04,08,34,8.70
2016,03,04,08,35,8.80
2016,03,04,08,36,9.00
2016,03,04,08,37,9.10
2016,03,04,08,38,9.30
2016,03,04,08,39,9.60
2016,03,04,08,40,9.70
2016,03,04,08,41,9.90
2016,03,04,08,42,10.00
2016,03,04,08,43,10.20
2016,03,04,08,44,10.40
2016,03,04,08,45,10.50
2016,03,04,08,46,10.70
2016,03,04,08,47,10.80
2016,03,04,08,48,10.80
2016,03,04,08,49,10.90
2016,03,04,08,50,10.90
2016,03,04,08,51,11.00
2016,03,04,08,52,11.10
2016,03,04,08,53,11.10
2016,03,04,08,54,11.20
2016,03,04,08,55,11.20
2016,03,04,08,56,11.20
2016,03,04,08,57,11.30
2016,03,04,08,58,11.30
2016,03,04,08,59,11.30
2016,03,04,09,00,11.40
2016,03,04,09,01,11.40
2016,03,04,09,02,11.40
2016,03,04,09,03,11.40
2016,03,04,09,04,11.40
2016,03,04,09,05,11.40
2016,03,04,09,06,11.40
2016,03,04,09,07,11.40
2016,03,04,09,08,11.50
2016,03,04,09,09,11.50
2016,03,04,09,10,11.50
2016,03,04,09,11,11.50
2016,03,04,09,12,11.60
2016,03,04,09,13,11.60
2016,03,04,09,14,11.60
2016,03,04,09,15,11.60
2016,03,04,09,16,11.70
2016,03,04,09,17,11.70
2016,03,04,09,18,11.70
2016,03,04,09,19,11.70
2016,03,04,09,20,11.70
2016,03,04,09,21,11.70
2016,03,04,09,22,11.70
2016,03,04,09,23,11.70
2016,03,04,09,24,11.70
2016,03,04,09,25,11.70
2016,03,04,09,26,11.70
2016,03,04,09,27,11.70
2016,03,04,09,28,11.70
2016,03,04,09,29,11.70
2016,03,04,09,30,11.70
2016,03,04,09,31,11.70
2016,03,04,09,32,11.60
2016,03,04,09,33,11.60
2016,03,04,09,34,11.60
2016,03,04,09,35,11.60
2016,03,04,09,36,11.60
2016,03,04,09,37,11.50
2016,03,04,09,38,11.50
2016,03,04,09,39,11.50
2016,03,04,09,40,11.40
2016,03,04,09,41,11.40
2016,03,04,09,42,11.30
2016,03,04,09,43,11.30
2016,03,04,09,44,11.30
2016,03,04,09,45,11.30
2016,03,04,09,46,11.20
2016,03,04,09,47,11.20
2016,03,04,09,48,11.20
2016,03,04,09,49,11.10
2016,03,04,09,50,11.10
2016,03,04,09,51,11.00
2016,03,04,09,52,10.90
2016,03,04,09,53,10.90
2016,03,04,09,54,10.90
2016,03,04,09,55,10.80
2016,03,04,09,56,10.80
2016,03,04,09,57,10.70
2016,03,04,09,58,10.70
2016,03,04,09,59,10.70
2016,03,04,10,00,10.60
2016,03,04,10,01,10.60
2016,03,04,10,02,10.50
2016,03,04,10,03,10.50
2016,03,04,10,04,10.40
2016,03,04,10,05,10.40
2016,03,04,10,06,10.30
2016,03,04,10,07,10.30
2016,03,04,10,08,10.20
2016,03,04,10,09,10.20
2016,03,04,10,10,10.20
2016,03,04,10,11,10.10
2016,03,04,10,12,10.10
2016,03,04,10,13,10.10
2016,03,04,10,14,10.00
2016,03,04,10,15,10.00
2016,03,04,10,16,10.00
2016,03,04,10,17,9.90
2016,03,04,10,18,9.90
2016,03,04,10,19,9.80
2016,03,04,10,20,9.80
2016,03,04,10,21,9.80
2016,03,04,10,22,9.80
2016,03,04,10,23,9.80
2016,03,04,10,24,9.70
2016,03,04,10,25,9.70
2016,03,04,10,26,9.70
2016,03,04,10,27,9.70
2016,03,04,10,28,9.70
2016,03,04,10,29,9.70
2016,03,04,10,30,9.70
2016,03,04,10,31,9.70
2016,03,04,10,32,9.70
2016,03,04,10,33,9.70
2016,03,04,10,34,9.70
2016,03,04,10,35,9.60
2016,03,04,10,36,9.60
2016,03,04,10,37,9.60
2016,03,04,10,38,9.60
2016,03,04,10,39,9.60
2016,03,04,10,40,9.60
2016,03,04,10,41,9.60
2016,03,04,10,42,9.60
2016,03,04,10,43,9.60
2016,03,04,10,44,9.60
2016,03,04,10,45,9.60
2016,03,04,10,46,9.60
2016,03,04,10,47,9.60
2016,03,04,10,48,9.60
2016,03,04,10,49,9.60
2016,03,04,10,50,9.60
2016,03,04,10,51,9.60
2016,03,04,10,52,9.60
2016,03,04,10,53,9.60
2016,03,04,10,54,9.60
2016,03,04,10,55,9.60
2016,03,04,10,56,9.60
2016,03,04,10,57,9.60
2016,03,04,10,58,9.60
2016,03,04,10,59,9.60
2016,03,04,11,00,9.60
2016,03,04,11,01,9.60
2016,03,04,11,02,9.60
2016,03,04,11,03,9.60
2016,03,04,11,04,9.60
2016,03,04,11,05,9.60
2016,03,04,11,06,9.60
2016,03,04,11,07,9.60
2016,03,04,11,08,9.60
2016,03,04,11,09,9.60
2016,03,04,11,10,9.60
2016,03,04,11,11,9.70
2016,03,04,11,12,9.70
2016,03,04,11,13,9.70
2016,03,04,11,14,9.70
2016,03,04,11,15,9.70
2016,03,04,11,16,9.70
2016,03,04,11,17,9.70
2016,03,04,11,18,9.70
2016,03,04,11,19,9.70
2016,03,04,11,20,9.80
2016,03,04,11,21,9.80
2016,03,04,11,22,9.80
2016,03,04,11,23,9.80
2016,03,04,11,24,9.80
2016,03,04,11,25,9.80
2016,03,04,11,26,9.80
2016,03,04,11,27,9.80
2016,03,04,11,28,9.80
2016,03,04,11,29,9.80
2016,03,04,11,30,9.80
2016,03,04,11,31,9.80
2016,03,04,11,32,9.80
2016,03,04,11,33,9.90
2016,03,04,11,34,9.90
2016,03,04,11,35,9.90
2016,03,04,11,36,9.90
2016,03,04,11,37,9.90
2016,03,04,11,38,9.90
2016,03,04,11,39,9.90
2016,03,04,11,40,10.00
2016,03,04,11,41,10.00
2016,03,04,11,42,10.00
2016,03,04,11,43,10.00
2016,03,04,11,44,10.10
2016,03,04,11,45,10.10
2016,03,04,11,46,10.10
2016,03,04,11,47,10.10
2016,03,04,11,48,10.10
2016,03,04,11,49,10.10
2016,03,04,11,50,10.10
2016,03,04,11,51,10.10
2016,03,04,11,52,10.10
2016,03,04,11,53,10.10
2016,03,04,11,54,10.10
2016,03,04,11,55,10.10
2016,03,04,11,56,10.20
2016,03,04,11,57,10.20
2016,03,04,11,58,10.20
2016,03,04,11,59,10.20
2016,03,04,12,00,10.20
2016,03,04,12,01,10.20
2016,03,04,12,02,10.30
2016,03,04,12,03,10.30
2016,03,04,12,04,10.30
2016,03,04,12,05,10.30
2016,03,04,12,06,10.40
2016,03,04,12,07,10.40
2016,03,04,12,08,10.40
2016,03,04,12,09,10.40
2016,03,04,12,10,10.40
2016,03,04,12,11,10.40
2016,03,04,12,12,10.40
2016,03,04,12,13,10.40
2016,03,04,12,14,10.40
2016,03,04,12,15,10.50
2016,03,04,12,16,10.50
2016,03,04,12,17,10.50
2016,03,04,12,18,10.60
2016,03,04,12,19,10.60
2016,03,04,12,20,10.60
2016,03,04,12,21,10.60
2016,03,04,12,22,10.60
2016,03,04,12,23,10.60
2016,03,04,12,24,10.60
2016,03,04,12,25,10.60
2016,03,04,12,26,10.70
2016,03,04,12,27,10.70
2016,03,04,12,28,10.70
2016,03,04,12,29,10.70
2016,03,04,12,30,10.70
2016,03,04,12,31,10.70
2016,03,04,12,32,10.70
2016,03,04,12,33,10.70
2016,03,04,12,34,10.70
2016,03,04,12,35,10.70
2016,03,04,12,36,10.70
2016,03,04,12,37,10.70
2016,03,04,12,38,10.80
2016,03,04,12,39,10.80
2016,03,04,12,40,10.80
2016,03,04,12,41,10.80
2016,03,04,12,42,10.80
2016,03,04,12,43,10.80
2016,03,04,12,44,10.80
2016,03,04,12,45,10.80
2016,03,04,12,46,10.80
2016,03,04,12,47,10.80
2016,03,04,12,48,10.80
2016,03,04,12,49,10.80
2016,03,04,12,50,10.80
2016,03,04,12,51,10.80
2016,03,04,12,52,10.80
2016,03,04,12,53,10.80
2016,03,04,12,54,10.80
2016,03,04,12,55,10.80
2016,03,04,12,56,10.80
2016,03,04,12,57,10.80
2016,03,04,12,58,10.80
2016,03,04,12,59,10.80
2016,03,04,13,00,10.80
2016,03,04,13,01,10.80
2016,03,04,13,02,10.80
2016,03,04,13,03,10.80
2016,03,04,13,04,10.90
2016,03,04,13,05,10.90
2016,03,04,13,06,10.90
2016,03,04,13,07,10.90
2016,03,04,13,08,10.90
2016,03,04,13,09,10.90
2016,03,04,13,10,11.00
2016,03,04,13,11,11.00
2016,03,04,13,12,11.10
2016,03,04,13,13,11.10
2016,03,04,13,14,11.10
2016,03,04,13,15,11.10
2016,03,04,13,16,11.20
2016,03,04,13,17,11.20
2016,03,04,13,18,11.20
2016,03,04,13,19,11.20
2016,03,04,13,20,11.20
2016,03,04,13,21,11.20
2016,03,04,13,22,11.20
2016,03,04,13,23,11.20
2016,03,04,13,24,11.20
2016,03,04,13,25,11.20
2016,03,04,13,26,11.20
2016,03,04,13,27,11.20
2016,03,04,13,28,11.20
2016,03,04,13,29,11.20
2016,03,04,13,30,11.20
2016,03,04,13,31,11.20
2016,03,04,13,32,11.20
2016,03,04,13,33,11.20
2016,03,04,13,34,11.20
2016,03,04,13,35,11.20
2016,03,04,13,36,11.20
2016,03,04,13,37,11.20
2016,03,04,13,38,11.20
2016,03,04,13,39,11.20
2016,03,04,13,40,11.20
2016,03,04,13,41,11.20
2016,03,04,13,42,11.20
2016,03,04,13,43,11.20
2016,03,04,13,44,11.20
2016,03,04,13,45,11.20
2016,03,04,13,46,11.20
2016,03,04,13,47,11.20
2016,03,04,13,48,11.20
2016,03,04,13,49,11.20
2016,03,04,13,50,11.20
2016,03,04,13,51,11.20
2016,03,04,13,52,11.20
2016,03,04,13,53,11.20
2016,03,04,13,54,11.20
2016,03,04,13,55,11.20
2016,03,04,13,56,11.20
2016,03,04,13,57,11.20
2016,03,04,13,58,11.20
2016,03,04,13,59,11.20
2016,03,04,14,00,11.20
2016,03,04,14,01,11.20
2016,03,04,14,02,11.20
2016,03,04,14,03,11.20
2016,03,04,14,04,11.20
2016,03,04,14,05,11.20
2016,03,04,14,06,11.20
2016,03,04,14,07,11.20
2016,03,04,14,08,11.20
2016,03,04,14,09,11.20
2016,03,04,14,10,11.20
2016,03,04,14,11,11.20
2016,03,04,14,12,11.10
2016,03,04,14,13,11.10
2016,03,04,14,14,11.10
2016,03,04,14,15,11.10
2016,03,04,14,16,11.10
2016,03,04,14,17,11.10
2016,03,04,14,18,11.10
2016,03,04,14,19,11.00
2016,03,04,14,20,11.00
2016,03,04,14,21,11.00
2016,03,04,14,22,11.00
2016,03,04,14,23,10.90
2016,03,04,14,24,11.00
2016,03,04,14,25,11.00
2016,03,04,14,26,11.00
2016,03,04,14,27,11.00
2016,03,04,14,28,11.00
2016,03,04,14,29,11.00
2016,03,04,14,30,11.10
2016,03,04,14,31,11.10
2016,03,04,14,32,11.10
2016,03,04,14,33,11.10
2016,03,04,14,34,11.10
2016,03,04,14,35,11.10
2016,03,04,14,36,11.10
2016,03,04,14,37,11.20
2016,03,04,14,38,11.20
2016,03,04,14,39,11.20
2016,03,04,14,40,11.20
2016,03,04,14,41,11.20
2016,03,04,14,42,11.20
2016,03,04,14,43,11.20
2016,03,04,14,44,11.20
2016,03,04,14,45,11.20
2016,03,04,14,46,11.20
2016,03,04,14,47,11.20
2016,03,04,14,48,11.20
2016,03,04,14,49,11.20
2016,03,04,14,50,11.20
2016,03,04,14,51,11.30
2016,03,04,14,52,11.30
2016,03,04,14,53,11.30
2016,03,04,14,54,11.30
2016,03,04,14,55,11.30
2016,03,04,14,56,11.30
2016,03,04,14,57,11.30
2016,03,04,14,58,11.30
2016,03,04,14,59,11.30
2016,03,04,15,00,11.30
2016,03,04,15,01,11.30
2016,03,04,15,02,11.30
2016,03,04,15,03,11.30
2016,03,04,15,04,11.30
2016,03,04,15,05,11.30
2016,03,04,15,06,11.30
2016,03,04,15,07,11.30
2016,03,04,15,08,11.30
2016,03,04,15,09,11.30
2016,03,04,15,10,11.30
2016,03,04,15,11,11.30
2016,03,04,15,12,11.30
2016,03,04,15,13,11.30
2016,03,04,15,14,11.30
2016,03,04,15,15,11.30
2016,03,04,15,16,11.30
2016,03,04,15,17,11.30
2016,03,04,15,18,11.30
2016,03,04,15,19,11.30
2016,03,04,15,20,11.20
2016,03,04,15,21,11.20
2016,03,04,15,22,11.20
2016,03,04,15,23,11.20
2016,03,04,15,24,11.10
2016,03,04,15,25,11.10
2016,03,04,15,26,11.10
2016,03,04,15,27,11.10
2016,03,04,15,28,11.10
2016,03,04,15,29,11.10
2016,03,04,15,30,11.10
2016,03,04,15,31,11.10
2016,03,04,15,32,11.10
2016,03,04,15,33,11.10
2016,03,04,15,34,11.10
2016,03,04,15,35,11.10
2016,03,04,15,36,11.10
2016,03,04,15,37,11.10
2016,03,04,15,38,11.10
2016,03,04,15,39,11.10
2016,03,04,15,40,11.10
2016,03,04,15,41,11.10
2016,03,04,15,42,11.10
2016,03,04,15,43,11.10
2016,03,04,15,44,11.10
2016,03,04,15,45,11.10
2016,03,04,15,46,11.10
2016,03,04,15,47,11.00
2016,03,04,15,48,11.00
2016,03,04,15,49,11.00
2016,03,04,15,50,11.00
2016,03,04,15,51,11.00
2016,03,04,15,52,11.00
2016,03,04,15,53,11.00
2016,03,04,15,54,11.00
2016,03,04,15,55,11.00
2016,03,04,15,56,11.00
2016,03,04,15,57,11.00
2016,03,04,15,58,10.90
2016,03,04,15,59,11.00
2016,03,04,16,00,10.90
2016,03,04,16,01,10.90
2016,03,04,16,02,10.90
2016,03,04,16,03,10.90
2016,03,04,16,04,10.90
2016,03,04,16,05,10.90
2016,03,04,16,06,10.90
2016,03,04,16,07,10.90
2016,03,04,16,08,10.90
2016,03,04,16,09,10.90
2016,03,04,16,10,10.90
2016,03,04,16,11,10.90
2016,03,04,16,12,10.90
2016,03,04,16,13,10.90
2016,03,04,16,14,10.80
2016,03,04,16,15,10.80
2016,03,04,16,16,10.80
2016,03,04,16,17,10.80
2016,03,04,16,18,10.80
2016,03,04,16,19,10.80
2016,03,04,16,20,10.80
2016,03,04,16,21,10.80
2016,03,04,16,22,10.80
2016,03,04,16,23,10.70
2016,03,04,16,24,10.70
2016,03,04,16,25,10.70
2016,03,04,16,26,10.70
2016,03,04,16,27,10.70
2016,03,04,16,28,10.70
2016,03,04,16,29,10.70
2016,03,04,16,30,10.70
2016,03,04,16,31,10.70
2016,03,04,16,32,10.60
2016,03,04,16,33,10.60
2016,03,04,16,34,10.60
2016,03,04,16,35,10.60
2016,03,04,16,36,10.60
2016,03,04,16,37,10.50
2016,03,04,16,38,10.50
2016,03,04,16,39,10.50
2016,03,04,16,40,10.40
2016,03,04,16,41,10.40
2016,03,04,16,42,10.40
2016,03,04,16,43,10.40
2016,03,04,16,44,10.40
2016,03,04,16,45,10.40
2016,03,04,16,46,10.40
2016,03,04,16,47,10.40
2016,03,04,16,48,10.40
2016,03,04,16,49,10.40
2016,03,04,16,50,10.40
2016,03,04,16,51,10.40
2016,03,04,16,52,10.40
2016,03,04,16,53,10.40
2016,03,04,16,54,10.40
2016,03,04,16,55,10.40
2016,03,04,16,56,10.40
2016,03,04,16,57,10.50
2016,03,04,16,58,10.50
2016,03,04,16,59,10.50
2016,03,04,17,00,10.60
2016,03,04,17,01,10.60
2016,03,04,17,02,10.60
2016,03,04,17,03,10.60
2016,03,04,17,04,10.60
2016,03,04,17,05,10.60
2016,03,04,17,06,10.60
2016,03,04,17,07,10.70
2016,03,04,17,08,10.70
2016,03,04,17,09,10.70
2016,03,04,17,10,10.70
2016,03,04,17,11,10.70
2016,03,04,17,12,10.60
2016,03,04,17,13,10.60
2016,03,04,17,14,10.60
2016,03,04,17,15,10.60
2016,03,04,17,16,10.50
2016,03,04,17,17,10.50
2016,03,04,17,18,10.50
2016,03,04,17,19,10.50
2016,03,04,17,20,10.40
2016,03,04,17,21,10.40
2016,03,04,17,22,10.40
2016,03,04,17,23,10.40
2016,03,04,17,24,10.40
2016,03,04,17,25,10.40
2016,03,04,17,26,10.40
2016,03,04,17,27,10.30
2016,03,04,17,28,10.30
2016,03,04,17,29,10.30
2016,03,04,17,30,10.30
2016,03,04,17,31,10.30
2016,03,04,17,32,10.30
2016,03,04,17,33,10.30
2016,03,04,17,34,10.30
2016,03,04,17,35,10.30
2016,03,04,17,36,10.30
2016,03,04,17,37,10.30
2016,03,04,17,38,10.20
2016,03,04,17,39,10.20
2016,03,04,17,40,10.20
2016,03,04,17,41,10.20
2016,03,04,17,42,10.20
2016,03,04,17,43,10.10
2016,03,04,17,44,10.10
2016,03,04,17,45,10.00
2016,03,04,17,46,10.00
2016,03,04,17,47,10.00
2016,03,04,17,48,9.90